SAS295 EKCH-EPGD

Flight info

Callsign SAS295
Flight time 0h 42m
Altitude 33000
Route SIMEG Z491 TELMO DCT ASBAX DCT RUMAR L983 DOMAG T240 OGDAV
Aircraft A20N/M-SDE2E3FGHIRWXY/LB1

Departure

Time 2026-05-05 10:00
Airport Copenhagen Kastrup Airport (EKCH)

Arrival

Time 2026-05-05 10:42
Airport Gdańsk Lech Wałęsa Airport (EPGD)
Time Latitude Longitude Altitude Speed Heading
2026-05-05 09:39 55.62732 12.65251 24 ft 0 kts
2026-05-05 09:50 55.62725 12.65250 23 ft 2 kts
2026-05-05 09:50 55.62710 12.65247 28 ft 2 kts
2026-05-05 09:50 55.62695 12.65246 26 ft 2 kts 348°
2026-05-05 09:51 55.62681 12.65254 27 ft 2 kts 326°
2026-05-05 09:51 55.62669 12.65270 28 ft 2 kts 323°
2026-05-05 09:51 55.62657 12.65286 28 ft 2 kts 327°
2026-05-05 09:51 55.62645 12.65299 27 ft 2 kts 332°
2026-05-05 09:52 55.62631 12.65311 28 ft 2 kts 341°
2026-05-05 09:52 55.62617 12.65318 26 ft 2 kts 351°
2026-05-05 09:52 55.62602 12.65321 25 ft 2 kts 355°
2026-05-05 09:52 55.62591 12.65322 27 ft 0 kts 358°
2026-05-05 09:54 55.62593 12.65322 27 ft 2 kts 358°
2026-05-05 09:54 55.62610 12.65321 25 ft 2 kts 357°
2026-05-05 09:54 55.62646 12.65290 24 ft 9 kts 313°
2026-05-05 09:55 55.62628 12.65192 24 ft 11 kts 216°
2026-05-05 09:55 55.62554 12.65182 27 ft 13 kts 180°
2026-05-05 09:55 55.62452 12.65194 23 ft 16 kts 173°
2026-05-05 09:55 55.62326 12.65203 23 ft 20 kts 183°
2026-05-05 09:56 55.62185 12.65150 26 ft 22 kts 210°
2026-05-05 09:56 55.62048 12.64993 26 ft 25 kts 213°
2026-05-05 09:56 55.61896 12.64816 23 ft 28 kts 213°
2026-05-05 09:56 55.61729 12.64622 26 ft 30 kts 213°
2026-05-05 09:57 55.61550 12.64415 26 ft 32 kts 212°
2026-05-05 09:57 55.61380 12.64225 24 ft 19 kts 212°
2026-05-05 09:57 55.61258 12.64085 26 ft 22 kts 213°
2026-05-05 09:57 55.61119 12.63922 26 ft 25 kts 213°
2026-05-05 09:58 55.60963 12.63745 26 ft 28 kts 213°
2026-05-05 09:58 55.60824 12.63611 23 ft 22 kts 179°
2026-05-05 09:58 55.60704 12.63763 26 ft 22 kts 130°
2026-05-05 09:58 55.60687 12.63887 25 ft 4 kts 36°
2026-05-05 09:59 55.60692 12.63895 27 ft 1 kts 42°
2026-05-05 09:59 55.60773 12.64024 30 ft 46 kts 40°
2026-05-05 09:59 55.61192 12.64667 26 ft 110 kts 41°
2026-05-05 09:59 55.61891 12.65728 132 ft 145 kts 38°
2026-05-05 10:00 55.62668 12.66807 779 ft 141 kts 37°
2026-05-05 10:00 55.63426 12.67909 1554 ft 140 kts 37°
2026-05-05 10:00 55.64158 12.69066 2138 ft 144 kts 40°
2026-05-05 10:00 55.64904 12.70321 2621 ft 153 kts 39°
2026-05-05 10:01 55.65725 12.71619 3180 ft 164 kts 37°
2026-05-05 10:01 55.66536 12.73170 3690 ft 186 kts 62°
2026-05-05 10:01 55.66729 12.75556 4222 ft 212 kts 99°
2026-05-05 10:01 55.66052 12.77976 4779 ft 232 kts 135°
2026-05-05 10:02 55.64644 12.79510 5312 ft 247 kts 168°
2026-05-05 10:02 55.62946 12.79544 6195 ft 245 kts 194°
2026-05-05 10:02 55.61289 12.78968 7104 ft 246 kts 195°
2026-05-05 10:02 55.59587 12.78384 7550 ft 252 kts 195°
2026-05-05 10:03 55.57805 12.77777 7246 ft 271 kts 195°
2026-05-05 10:03 55.55946 12.77131 7008 ft 269 kts 193°
2026-05-05 10:03 55.54073 12.77244 6998 ft 278 kts 167°
2026-05-05 10:03 55.52354 12.78872 6999 ft 285 kts 141°
2026-05-05 10:04 55.51056 12.81545 6996 ft 288 kts 130°
2026-05-05 10:04 55.49836 12.84337 6995 ft 288 kts 130°
2026-05-05 10:04 55.48681 12.87225 6995 ft 288 kts 125°
2026-05-05 10:04 55.47591 12.90194 7001 ft 288 kts 125°
2026-05-05 10:05 55.46505 12.93160 6995 ft 288 kts 125°
2026-05-05 10:05 55.45419 12.96132 6992 ft 288 kts 125°
2026-05-05 10:05 55.44334 12.99099 6979 ft 288 kts 125°
2026-05-05 10:05 55.43263 13.02021 7113 ft 287 kts 125°
2026-05-05 10:06 55.42181 13.04988 7538 ft 290 kts 125°
2026-05-05 10:06 55.41090 13.08009 8050 ft 294 kts 125°
2026-05-05 10:06 55.39995 13.11076 8567 ft 298 kts 125°
2026-05-05 10:06 55.38896 13.14190 9090 ft 301 kts 125°
2026-05-05 10:07 55.37793 13.17346 9621 ft 305 kts 125°
2026-05-05 10:07 55.36683 13.20554 10124 ft 311 kts 125°
2026-05-05 10:07 55.35525 13.23906 10636 ft 332 kts 125°
2026-05-05 10:07 55.34284 13.27475 11136 ft 351 kts 125°
2026-05-05 10:08 55.32986 13.31190 11640 ft 361 kts 125°
2026-05-05 10:08 55.31668 13.34965 12149 ft 364 kts 125°
2026-05-05 10:08 55.30340 13.38763 12671 ft 367 kts 125°
2026-05-05 10:08 55.28999 13.42600 13206 ft 369 kts 125°
2026-05-05 10:09 55.27651 13.46454 13735 ft 372 kts 125°
2026-05-05 10:09 55.26296 13.50340 14216 ft 375 kts 125°
2026-05-05 10:09 55.24873 13.54158 14692 ft 374 kts 130°
2026-05-05 10:09 55.23330 13.57860 15185 ft 377 kts 130°
2026-05-05 10:10 55.21782 13.61605 15742 ft 382 kts 128°
2026-05-05 10:10 55.20317 13.65501 16592 ft 385 kts 126°
2026-05-05 10:10 55.18926 13.69538 17367 ft 390 kts 124°
2026-05-05 10:10 55.17572 13.73685 18134 ft 395 kts 123°
2026-05-05 10:11 55.16230 13.77904 18826 ft 398 kts 123°
2026-05-05 10:11 55.14887 13.82155 19520 ft 401 kts 123°
2026-05-05 10:11 55.13534 13.86434 20189 ft 404 kts 123°
2026-05-05 10:11 55.12162 13.90753 20857 ft 407 kts 123°
2026-05-05 10:12 55.10777 13.95102 21506 ft 411 kts 123°
2026-05-05 10:12 55.09571 13.99598 22140 ft 420 kts 111°
2026-05-05 10:12 55.09023 14.04667 22755 ft 431 kts 98°
2026-05-05 10:12 55.08829 14.09925 23354 ft 436 kts 96°
2026-05-05 10:13 55.08688 14.15240 23894 ft 440 kts 96°
2026-05-05 10:13 55.08543 14.20596 24424 ft 443 kts 96°
2026-05-05 10:13 55.08381 14.25989 24932 ft 446 kts 96°
2026-05-05 10:13 55.08203 14.31411 25422 ft 450 kts 96°
2026-05-05 10:14 55.08013 14.36885 25911 ft 453 kts 97°
2026-05-05 10:14 55.07817 14.42377 26384 ft 456 kts 97°
2026-05-05 10:14 55.07614 14.47934 26855 ft 459 kts 97°
2026-05-05 10:14 55.07408 14.53531 27315 ft 463 kts 97°
2026-05-05 10:15 55.07199 14.59144 27764 ft 466 kts 97°
2026-05-05 10:15 55.06985 14.64805 28187 ft 469 kts 97°
2026-05-05 10:15 55.06771 14.70434 28602 ft 472 kts 97°
2026-05-05 10:15 55.06549 14.76168 29002 ft 475 kts 97°
2026-05-05 10:16 55.06324 14.81928 29402 ft 478 kts 97°
2026-05-05 10:16 55.06094 14.87730 29790 ft 481 kts 98°
2026-05-05 10:16 55.05922 14.93582 30147 ft 485 kts 96°
2026-05-05 10:16 55.05826 14.99488 30486 ft 488 kts 95°
2026-05-05 10:17 55.05742 15.05415 30826 ft 491 kts 95°
2026-05-05 10:17 55.05647 15.11382 31180 ft 492 kts 95°
2026-05-05 10:17 55.05538 15.17359 31608 ft 492 kts 95°
2026-05-05 10:17 55.05418 15.23335 32049 ft 492 kts 95°
2026-05-05 10:18 55.05295 15.29217 32469 ft 492 kts 96°
2026-05-05 10:18 55.05165 15.35178 32765 ft 492 kts 96°
2026-05-05 10:18 55.05032 15.41135 32880 ft 490 kts 96°
2026-05-05 10:18 55.04896 15.47069 32941 ft 490 kts 96°
2026-05-05 10:19 55.04617 15.58940 32944 ft 490 kts 96°
2026-05-05 10:19 55.04326 15.70831 32945 ft 491 kts 96°
2026-05-05 10:20 55.04001 15.82736 32942 ft 490 kts 100°
2026-05-05 10:20 55.03356 15.88527 32940 ft 483 kts 112°
2026-05-05 10:20 55.02243 15.94026 32943 ft 481 kts 115°
2026-05-05 10:21 54.99931 16.04967 32950 ft 482 kts 115°
2026-05-05 10:21 54.97625 16.15947 32956 ft 483 kts 115°
2026-05-05 10:22 54.95316 16.26926 32952 ft 484 kts 115°
2026-05-05 10:22 54.93005 16.37857 32955 ft 484 kts 116°
2026-05-05 10:23 54.90668 16.48845 32957 ft 484 kts 116°
2026-05-05 10:23 54.89498 16.54328 32828 ft 484 kts 116°
2026-05-05 10:23 54.88328 16.59797 32554 ft 482 kts 116°
2026-05-05 10:24 54.87158 16.65246 32283 ft 482 kts 116°
2026-05-05 10:24 54.85985 16.70697 32018 ft 482 kts 116°
2026-05-05 10:24 54.84806 16.76159 31753 ft 482 kts 116°
2026-05-05 10:24 54.83627 16.81603 31487 ft 482 kts 116°
2026-05-05 10:25 54.82461 16.86978 31223 ft 482 kts 116°
2026-05-05 10:25 54.81278 16.92416 30752 ft 482 kts 116°
2026-05-05 10:25 54.80092 16.97860 30133 ft 481 kts 116°
2026-05-05 10:25 54.78912 17.03260 29475 ft 476 kts 116°
2026-05-05 10:26 54.77744 17.08594 28717 ft 473 kts 116°
2026-05-05 10:26 54.76575 17.13905 27902 ft 471 kts 116°
2026-05-05 10:26 54.75409 17.19188 27088 ft 465 kts 116°
2026-05-05 10:26 54.74263 17.24374 26306 ft 458 kts 116°
2026-05-05 10:27 54.73135 17.29470 25552 ft 448 kts 116°
2026-05-05 10:27 54.72029 17.34450 24820 ft 440 kts 116°
2026-05-05 10:27 54.70930 17.39378 24104 ft 438 kts 116°
2026-05-05 10:27 54.69832 17.44287 23380 ft 436 kts 115°
2026-05-05 10:28 54.68744 17.49145 22562 ft 431 kts 115°
2026-05-05 10:28 54.67670 17.53938 21760 ft 423 kts 115°
2026-05-05 10:28 54.66617 17.58631 20986 ft 416 kts 115°
2026-05-05 10:28 54.65576 17.63260 20226 ft 410 kts 115°
2026-05-05 10:29 54.64563 17.67749 19501 ft 403 kts 115°
2026-05-05 10:29 54.63551 17.72228 18780 ft 397 kts 115°
2026-05-05 10:29 54.62549 17.76646 18054 ft 391 kts 115°
2026-05-05 10:29 54.61564 17.80982 17245 ft 386 kts 115°
2026-05-05 10:30 54.60590 17.85263 16464 ft 380 kts 115°
2026-05-05 10:30 54.59629 17.89477 15704 ft 375 kts 115°
2026-05-05 10:30 54.58679 17.93635 15030 ft 369 kts 115°
2026-05-05 10:30 54.57746 17.97715 14435 ft 362 kts 115°
2026-05-05 10:31 54.56830 18.01713 13840 ft 356 kts 115°
2026-05-05 10:31 54.55926 18.05646 13187 ft 351 kts 115°
2026-05-05 10:31 54.55333 18.08220 12744 ft 347 kts 115°
2026-05-05 10:31 54.54449 18.12053 12093 ft 342 kts 115°
2026-05-05 10:32 54.53579 18.15817 11461 ft 337 kts 115°
2026-05-05 10:32 54.52714 18.19555 10837 ft 332 kts 115°
2026-05-05 10:32 54.51861 18.23237 10228 ft 328 kts 115°
2026-05-05 10:32 54.51023 18.26851 9615 ft 323 kts 115°
2026-05-05 10:33 54.50199 18.30400 9091 ft 315 kts 115°
2026-05-05 10:33 54.49397 18.33849 8566 ft 307 kts 115°
2026-05-05 10:33 54.48607 18.37230 8066 ft 302 kts 115°
2026-05-05 10:33 54.47829 18.40557 7576 ft 296 kts 115°
2026-05-05 10:34 54.47077 18.43775 7126 ft 290 kts 114°
2026-05-05 10:34 54.46330 18.46956 6691 ft 284 kts 114°
2026-05-05 10:34 54.45597 18.50077 6246 ft 279 kts 114°
2026-05-05 10:34 54.44878 18.53138 5770 ft 274 kts 114°
2026-05-05 10:35 54.44172 18.56141 5323 ft 269 kts 114°
2026-05-05 10:35 54.43468 18.59107 4875 ft 267 kts 114°
2026-05-05 10:35 54.42775 18.62043 4403 ft 264 kts 113°
2026-05-05 10:35 54.42091 18.64950 3947 ft 260 kts 113°
2026-05-05 10:36 54.41418 18.67808 3494 ft 257 kts 113°
2026-05-05 10:36 54.40752 18.70629 3205 ft 251 kts 113°
2026-05-05 10:36 54.40111 18.73348 3066 ft 239 kts 113°
2026-05-05 10:36 54.39503 18.75920 3001 ft 225 kts 113°
2026-05-05 10:37 54.38749 18.78133 3003 ft 210 kts 138°
2026-05-05 10:37 54.37561 18.79297 2997 ft 192 kts 170°
2026-05-05 10:37 54.36259 18.79301 3029 ft 189 kts 198°
2026-05-05 10:37 54.35117 18.78335 3005 ft 182 kts 215°
2026-05-05 10:38 54.34043 18.77171 3018 ft 184 kts 214°
2026-05-05 10:38 54.32954 18.76018 3006 ft 183 kts 213°
2026-05-05 10:38 54.32021 18.74580 3000 ft 181 kts 240°
2026-05-05 10:38 54.31713 18.72518 3005 ft 182 kts 271°
2026-05-05 10:39 54.31918 18.70432 2993 ft 170 kts 286°
2026-05-05 10:39 54.32315 18.68620 2954 ft 161 kts 291°
2026-05-05 10:39 54.32753 18.66835 2754 ft 161 kts 292°
2026-05-05 10:39 54.33186 18.65082 2527 ft 159 kts 292°
2026-05-05 10:40 54.33626 18.63323 2321 ft 161 kts 292°
2026-05-05 10:40 54.34052 18.61581 2098 ft 157 kts 292°
2026-05-05 10:40 54.34471 18.59899 1879 ft 149 kts 292°
2026-05-05 10:40 54.34859 18.58327 1696 ft 138 kts 292°
2026-05-05 10:41 54.35220 18.56866 1502 ft 132 kts 293°
2026-05-05 10:41 54.35583 18.55400 1322 ft 133 kts 293°
2026-05-05 10:41 54.35940 18.53958 1145 ft 135 kts 295°
2026-05-05 10:41 54.36309 18.52468 952 ft 135 kts 296°
2026-05-05 10:42 54.37039 18.49499 595 ft 135 kts 296°
2026-05-05 10:42 54.37407 18.48034 464 ft 127 kts 294°
2026-05-05 10:42 54.37661 18.47031 454 ft 49 kts 307°
2026-05-05 10:43 54.37847 18.46700 451 ft 9 kts 335°
2026-05-05 10:43 54.37851 18.46697 451 ft 0 kts 334°
2026-05-05 10:44 54.37858 18.46689 451 ft 4 kts 328°
2026-05-05 10:44 54.37889 18.46653 452 ft 7 kts 323°
2026-05-05 10:44 54.37933 18.46599 453 ft 9 kts 330°
2026-05-05 10:44 54.38001 18.46591 453 ft 11 kts 14°
2026-05-05 10:45 54.38072 18.46568 453 ft 11 kts 311°
2026-05-05 10:45 54.38100 18.46491 451 ft 6 kts 315°
2026-05-05 10:45 54.38108 18.46488 452 ft 2 kts 346°
2026-05-05 10:45 54.38134 18.46493 453 ft 6 kts 13°
2026-05-05 10:46 54.38138 18.46495 453 ft 0 kts 15°